This is the latest recevied weather packets stored in our database for station/object VA3BOO. If no packets are shown the sender has not sent any weather packets the latest 10 day(s).
| Time | Temp. | Humidity | Pressure | Rain* | Wind** | Luminosity | Snow |
|---|---|---|---|---|---|---|---|
| 1777896903 | 8.33° C | 83% | 1005.9 hPa | 0.76 mm | - | 106 W/m² | - |
| 1777896603 | 8.33° C | 83% | 1006 hPa | 0.76 mm | - | 94 W/m² | - |
| 1777896303 | 8.33° C | 86% | 1005.8 hPa | 0.76 mm | - | 90 W/m² | - |
| 1777896003 | 7.78° C | 87% | 1005.9 hPa | 0.76 mm | - | 98 W/m² | - |
| 1777895703 | 7.78° C | 86% | 1005.9 hPa | 0.76 mm | - | 108 W/m² | - |
| 1777895403 | 7.78° C | 85% | 1005.8 hPa | 0.76 mm | - | 63 W/m² | - |
| 1777895103 | 8.33° C | 82% | 1006 hPa | 0.51 mm | - | 27 W/m² | - |
| 1777894803 | 8.33° C | 80% | 1005.8 hPa | 0 mm | - | 12 W/m² | - |
| 1777894503 | 8.89° C | 78% | 1005.7 hPa | 0 mm | - | 20 W/m² | - |
| 1777894203 | 8.89° C | 77% | 1005.7 hPa | 0 mm | - | 27 W/m² | - |
| 1777893903 | 8.33° C | 79% | 1005.8 hPa | 0 mm | - | 24 W/m² | - |
| 1777893603 | 8.33° C | 80% | 1005.5 hPa | 0 mm | - | 26 W/m² | - |
| 1777893303 | 8.33° C | 80% | 1005.5 hPa | 0 mm | - | 23 W/m² | - |
| 1777893003 | 8.89° C | 79% | 1005.6 hPa | 0 mm | - | 15 W/m² | - |
| 1777892703 | 8.89° C | 78% | 1005.6 hPa | 0 mm | - | 14 W/m² | - |
| 1777892404 | 8.89° C | 77% | 1005.6 hPa | 0 mm | - | 17 W/m² | - |
| 1777892103 | 8.89° C | 77% | 1005.7 hPa | 0 mm | - | 15 W/m² | - |
| 1777891803 | 8.89° C | 77% | 1005.6 hPa | 0 mm | - | 8 W/m² | - |
| 1777891503 | 8.89° C | 77% | 1005.7 hPa | 0 mm | - | 7 W/m² | - |
| 1777891203 | 8.89° C | 76% | 1005.7 hPa | 0 mm | - | 4 W/m² | - |
| 1777890903 | 8.89° C | 77% | 1005.5 hPa | 0 mm | - | 4 W/m² | - |
| 1777890603 | 8.89° C | 77% | 1005.4 hPa | 0 mm | - | 4 W/m² | - |
| 1777890303 | 8.89° C | 76% | 1005.3 hPa | 0 mm | - | 6 W/m² | - |
| 1777890004 | 8.89° C | 76% | 1005.6 hPa | 0 mm | - | 5 W/m² | - |
| 1777889703 | 8.89° C | 76% | 1005.4 hPa | 0 mm | - | 3 W/m² | - |
* Rain latest hour (hover to see other rain measurements)
** Current wind speed in m/s (hover to see current wind gust speed)